Nellis Air Force Base Las Vegas US
ICAO: KLSV
IATA: LSV
Category: Medium
Scheduled Services: No

Elevation: 1870 ft
TransAlt. 18000 ft.

Airport Communications:
ALCE AMC:25.735
APP:118.125
ATIS:27.01
CLNC DEL:120.9
DEP:135.1
GND:121.8
SOF:30.56
PMSV METRO:32.39
ACC COMD POST:32
PTD:139.3
TWR:132.55

KLSV Zoom In..

If you have problems with the map follow the link
https://www.worldairports.se/pages/airport.php?
ICAO=KLSV

Runways:

(A) RW 03L length 10120 ft width 200 ft
---- / hdg 27

(B) RW 03R length 10051 ft width 150 ft
---- / hdg 27

(C) RW 21L length 10051 ft width 150 ft
ILS 109.10 / hdg 207

(D) RW 21R length 10120 ft width 200 ft
---- / hdg 207

Location; KLSV
Day. 19 / Time. 18.58 Zulu
* Altimeter: 30.34
* Temperature: 13° c. 55.4°f.
* Wind from: 190° Speed 03 kn.
Dewpoint: -05° c.
Visibility: 10 Statute Miles.
Clouds: Clear (automated report).

KLSV 191858Z AUTO 19003KT 10SM CLR 13/M05 A3034 RMK AO2 SLP276 T01291052 $


Wind From 190°
Speed 03 kn.

 
 
jpsmedia worldairports.se 2020   terms of use